Regional Weather Roundup
Issued by NWS

Home | Current Version | Previous Version | Text Only | Print | Product List | Glossary Off
Versions: 1 2 3 4 5 6 7 8 9 10 11 12 13 14 15 16 17 18 19 20 21 22 23 24 25 26 27 28 29 30 31 32 33 34 35 36 37 38 39 40 41 42 43 44 45 46 47 48 49 50

000
ASUS43 KFSD 030902
RWRSD

WEATHER ROUNDUP FOR SOUTH DAKOTA
NATIONAL WEATHER SERVICE SIOUX FALLS SD
400 AM CDT FRI JUL 03 2015

NOTE: "FAIR" INDICATES FEW OR NO CLOUDS BELOW 12,000 FEET WITH NO
SIGNIFICANT WEATHER AND/OR OBSTRUCTIONS TO VISIBILITY.


SDZ001>005-009-010-012>017-031000-
NORTHWEST AND NORTH CENTRAL SOUTH DAKOTA

CITY           SKY/WX    TMP DP  RH WIND       PRES   REMARKS
BUFFALO          N/A     60  56  86 W8        30.01F
FAITH            N/A     64  58  80 SW3       30.04F
MOBRIDGE       CLEAR     63  63 100 N3        29.97S FOG
$$

SDZ012>016-024>037-041>051-057-063-072>074-031000-
SOUTHWEST AND SOUTH CENTRAL SOUTH DAKOTA

CITY           SKY/WX    TMP DP  RH WIND       PRES   REMARKS
RAPID CTY ARPT CLEAR     60  56  86 NW8       30.08F
PIERRE         CLEAR     62  61  96 CALM      29.99S
CUSTER         CLEAR     53  49  86 W5        30.20F FOG
ELLSWORTH AFB  CLEAR     61  57  88 W5        30.08S
PHILIP         CLEAR     59  58  96 W6        30.03S
PINE RIDGE     CLEAR     56  54  93 CALM      30.09S
WINNER         FOG       63  61  93 S6        30.02S VSB 1/2
$$

SDZ004>011-016>023-039-040-031000-
NORTHEAST SOUTH DAKOTA

CITY           SKY/WX    TMP DP  RH WIND       PRES   REMARKS
ABERDEEN       CLEAR     61  59  93 S6        29.97S FOG
WATERTOWN      CLEAR     56  54  93 S5        29.99F FOG
BROOKINGS      CLEAR     54  52  94 S6        30.02S
SISSETON         N/A     65  55  70 W10       29.94S
$$

SDZ017-020-022-023-036>040-048>070-031000-
SOUTHEAST SOUTH DAKOTA

CITY           SKY/WX    TMP DP  RH WIND       PRES   REMARKS
SIOUX FALLS    FOG       54  54 100 CALM      30.01S VSB 3/4
HURON          CLEAR     59  58  96 S5        29.98F FOG
CHAMBERLAIN    FOG       63  63 100 SW6       30.01R VSB 1/4
MITCHELL       CLEAR     58  58 100 SE3       30.01S FOG
YANKTON        PTCLDY    59  55  88 CALM      30.00S
$$

ABBREVIATIONS USED IN REMARKS
   TC - TEMPERATURE IN CELSIUS
  WCI - WIND CHILL INDEX
   HX - HEAT INDEX
  VSB - VISIBILITY



USA.gov is the U.S. government's official web portal to all federal, state and local government web resources and services.